Starlink 1814

operational
NORAD ID: 46712 Int'l Des: 2020-073 Owner: SPXS Country: US Constellation: starlink
LEOCIRCULARSTARLINK_TYPE

About Starlink 1814

Description loading...

Live Position

Loading 3D Globe...

Upcoming Passes

Altitude History

Altitude vs Time

uPlot chart will show altitude changes over time

Two-Line Element Set

1 46712U 20073AU 25307.83336806 .00176538 00000-0 42373-2 0 9997
2 46712 53.0516 79.5428 0005920 280.5170 259.2869 15.40208915 5793
Epoch: Nov 3, 2025 • Age: 9 hours

Current Status

Altitude 445.1 km
Velocity 7.65 km/s
Sub-Earth Point 2.66°N, 32.55°W
Launch Date Oct 18, 2020
Age 5 years
Type internet

Technical Details

Classification Payload
Mass 260.00 kg
Dry Mass 248.00 kg
Total Mass 260.00 kg
Length 0.20 m
Diameter 2.80 m
Span 9.00 m
Shape Box + pan
Manufacturer SPXS
Bus Type Starlink
Phase Status In Orbit
Owner/State SPXS/US

Large Constellations

Loading constellations...